Home > Weather > Lucerne > Past weeks

Flag for Switzerland Past Weather in Lucerne, Lucerne, Switzerland — Yesterday and Last 2 Weeks

Now
60 °F

Cool.


Feels Like: 60 °F
Forecast: 62 / 86 °F
Wind: 2 mph from West

Location: Giswil

Current Time: Aug 26, 2016 at 7:24:48 AM

Latest Report: Aug 26, 2016 at 6:00 AM


Visibility: N/A

Pressure: 30.09 "Hg

Humidity: 100%

Dew Point: 60 °F

Location of LucerneLocation

Past Weather in Lucerne — Graph

°F

Lucerne Temperature Yesterday

Maximum temperature yesterday: 85 °F (at 6:00 PM)
Minimum temperature yesterday: 56 °F (at 7:00 AM)
Average temperature yesterday: 70 °F

High & Low Weather Summary for the Past Weeks

 TemperatureHumidityPressure
High85 °F (Aug 25, 6:00 PM)100% (Aug 13, 5:00 AM)30.41 "Hg (Aug 13, 5:00 AM)
Low46 °F (Aug 11, 6:00 AM)46% (Aug 22, 2:00 PM)29.83 "Hg (Aug 17, 6:00 PM)
Average64 °F82%30.12 "Hg
* Reported Aug 11 6:00 AM — Aug 26 6:00 AM, Lucerne, Weather by CustomWeather, © 2016

Note: Actual official high and low records may vary slightly from our data, if they occured in-between our weather recording intervals... More about our weather records

Advertising

Lucerne Weather History for the Previous 24 Hours

Scroll right to see more
 ConditionsComfort  
Time TempWeatherWind HumidityBarometerVisibility
6:00 AM
Fri, Aug 26
60 °FCool.2 mph100%30.09 "HgN/A
5:00 AM61 °FCool.1 mph99%30.09 "HgN/A
4:00 AM62 °FCool.1 mph99%30.07 "HgN/A
3:00 AM63 °FMild.1 mph99%30.06 "HgN/A
2:00 AM64 °FMild.1 mph99%30.05 "HgN/A
1:00 AM65 °FMild.1 mph99%30.05 "HgN/A
12:00 AM66 °FMild.No wind96%30.04 "HgN/A
11:00 PM
Thu, Aug 25
67 °FMild.2 mph96%30.04 "HgN/A
10:00 PM70 °FMild.2 mph92%30.03 "HgN/A
9:00 PM71 °FMild.2 mph92%30.02 "HgN/A
8:00 PM75 °FMild.3 mph82%29.99 "HgN/A
7:00 PM82 °FWarm.3 mph68%29.97 "HgN/A
6:00 PM85 °FWarm.1 mph59%29.96 "HgN/A
5:00 PM84 °FWarm.2 mph57%29.98 "HgN/A
4:00 PM84 °FWarm.2 mph54%29.99 "HgN/A
3:00 PM82 °FWarm.3 mph58%30.01 "HgN/A
2:00 PM82 °FWarm.2 mph56%30.02 "HgN/A
1:00 PM80 °FWarm.2 mph58%30.04 "HgN/A
12:00 PM77 °FMild.2 mph64%30.05 "HgN/A
11:00 AM73 °FMild.1 mph74%30.07 "HgN/A
10:00 AM69 °FMild.2 mph80%30.09 "HgN/A
9:00 AM66 °FMild.No wind91%30.11 "HgN/A
8:00 AM61 °FCool.No wind99%30.13 "HgN/A
7:00 AM56 °FCool.1 mph99%30.13 "HgN/A
Weather by CustomWeather, © 2016

See weather overviewHow to use our weather pages